• In Netherlands
  • List of Countries
  • For 7 days
  • Water Temperature
  • Satellite Maps
  • Weather Map
  • Weather Widgets
  • user-avatar
    Login

    Hourly Weather Zaozere (Kohanovo)

    Today, 22 October, Monday

    Time Temperature Precipitation Wind Pressure Humidity
    00:00 +4°C° 0 mm 1 mps 752 mmHg 83%
    01:00 +4°C° 0 mm 1 mps 752 mmHg 84%
    02:00 +3°C° 0 mm 2 mps 752 mmHg 86%
    03:00 +2°C° 0 mm 2 mps 751 mmHg 87%
    04:00 +2°C° 0 mm 2 mps 751 mmHg 88%
    05:00 +2°C° 0 mm 2 mps 751 mmHg 89%
    06:00 +2°C° 0 mm 2 mps 751 mmHg 88%
    07:00 +2°C° 0 mm 2 mps 751 mmHg 87%
    08:00 +2°C° 0 mm 3 mps 750 mmHg 83%
    09:00 +3°C° 0 mm 3 mps 750 mmHg 78%
    10:00 +5°C° 0 mm 4 mps 750 mmHg 72%
    11:00 +6°C° 0 mm 4 mps 749 mmHg 66%
    12:00 +7°C° 0 mm 4 mps 749 mmHg 65%
    13:00 +8°C° 0 mm 4 mps 748 mmHg 63%
    14:00 +8°C° 0 mm 5 mps 747 mmHg 61%
    15:00 +7°C° 0 mm 4 mps 747 mmHg 66%
    16:00 +6°C° 0 mm 4 mps 746 mmHg 71%
    17:00 +5°C° 0 mm 4 mps 745 mmHg 76%
    18:00 +5°C° 0 mm 4 mps 745 mmHg 78%
    19:00 +5°C° 0 mm 4 mps 744 mmHg 80%
    20:00 +4°C° 0 mm 4 mps 744 mmHg 82%
    21:00 +4°C° 0.2 mm 4 mps 743 mmHg 83%
    22:00 +3°C° 0.2 mm 5 mps 743 mmHg 85%
    23:00 +3°C° 0.2 mm 5 mps 742 mmHg 87%

    Tomorrow, 23 October, Tuesday

    Time Temperature Precipitation Wind Pressure Humidity
    00:00 +5°C° 0.6 mm 4 mps 742 mmHg 88%
    01:00 +5°C° 0.6 mm 4 mps 741 mmHg 90%
    02:00 +5°C° 0.6 mm 4 mps 741 mmHg 91%
    03:00 +5°C° 0.3 mm 4 mps 741 mmHg 92%
    04:00 +4°C° 0.3 mm 4 mps 740 mmHg 92%
    05:00 +4°C° 0.3 mm 4 mps 740 mmHg 93%
    06:00 +3°C° 0 mm 3 mps 740 mmHg 93%
    07:00 +3°C° 0 mm 3 mps 740 mmHg 93%
    08:00 +2°C° 0 mm 3 mps 740 mmHg 93%
    09:00 +3°C° 0 mm 3 mps 739 mmHg 86%
    10:00 +4°C° 0 mm 3 mps 739 mmHg 79%
    11:00 +7°C° 0 mm 3 mps 738 mmHg 72%
    12:00 +7°C° 0 mm 3 mps 738 mmHg 69%
    13:00 +6°C° 0 mm 4 mps 737 mmHg 65%
    14:00 +7°C° 0 mm 4 mps 736 mmHg 62%
    15:00 +6°C° 0.1 mm 4 mps 735 mmHg 66%
    16:00 +5°C° 0.1 mm 4 mps 734 mmHg 70%
    17:00 +5°C° 0.1 mm 5 mps 732 mmHg 74%
    18:00 +5°C° 0.1 mm 5 mps 731 mmHg 76%
    19:00 +3°C° 0.1 mm 6 mps 730 mmHg 78%
    20:00 +3°C° 0.1 mm 6 mps 729 mmHg 80%
    21:00 +3°C° 0.2 mm 6 mps 727 mmHg 81%
    22:00 +3°C° 0.2 mm 7 mps 726 mmHg 82%
    23:00 +3°C° 0.2 mm 7 mps 725 mmHg 83%

    Day after tomorrow, 24 October, Wednesday

    Time Temperature Precipitation Wind Pressure Humidity
    00:00 +3°C° 0.8 mm 6 mps 723 mmHg 85%
    01:00 +3°C° 0.8 mm 6 mps 722 mmHg 86%
    02:00 +3°C° 0.8 mm 6 mps 721 mmHg 87%
    03:00 +3°C° 0.9 mm 5 mps 720 mmHg 89%
    04:00 +4°C° 0.9 mm 4 mps 719 mmHg 91%
    05:00 +4°C° 0.9 mm 3 mps 718 mmHg 92%
    06:00 +4°C° 0.2 mm 3 mps 718 mmHg 92%
    07:00 +5°C° 0.2 mm 2 mps 718 mmHg 93%
    08:00 +5°C° 0.2 mm 2 mps 718 mmHg 93%
    09:00 +6°C° 0 mm 2 mps 718 mmHg 89%
    10:00 +5°C° 0 mm 3 mps 719 mmHg 86%
    11:00 +7°C° 0 mm 3 mps 719 mmHg 82%
    12:00 +6°C° 0.1 mm 4 mps 719 mmHg 81%
    13:00 +6°C° 0.1 mm 4 mps 720 mmHg 80%
    14:00 +6°C° 0.1 mm 4 mps 720 mmHg 78%
    15:00 +6°C° 0.1 mm 4 mps 721 mmHg 80%
    16:00 +5°C° 0.1 mm 4 mps 721 mmHg 81%
    17:00 +5°C° 0.1 mm 4 mps 722 mmHg 83%
    18:00 +4°C° 0 mm 4 mps 722 mmHg 85%
    19:00 +4°C° 0 mm 4 mps 722 mmHg 88%
    20:00 +3°C° 0 mm 4 mps 722 mmHg 91%
    21:00 +3°C° 0 mm 4 mps 723 mmHg 90%
    22:00 +3°C° 0 mm 5 mps 723 mmHg 89%
    23:00 +3°C° 0 mm 5 mps 723 mmHg 88%

    25 October, Thursday

    Time Temperature Precipitation Wind Pressure Humidity
    00:00 +3°C° 0.1 mm 6 mps 723 mmHg 87%
    01:00 +3°C° 0.1 mm 6 mps 724 mmHg 86%
    02:00 +2°C° 0.1 mm 7 mps 724 mmHg 85%
    03:00 +2°C° 0.2 mm 7 mps 724 mmHg 85%
    04:00 +2°C° 0.2 mm 7 mps 724 mmHg 84%
    05:00 +2°C° 0.2 mm 7 mps 724 mmHg 83%
    06:00 +2°C° 0 mm 7 mps 724 mmHg 83%
    07:00 0°C° 0 mm 7 mps 725 mmHg 83%
    08:00 0°C° 0 mm 7 mps 725 mmHg 83%
    09:00 +2°C° 0 mm 7 mps 725 mmHg 79%
    10:00 +2°C° 0 mm 7 mps 725 mmHg 75%
    11:00 +3°C° 0 mm 7 mps 725 mmHg 71%
    12:00 +3°C° 0 mm 7 mps 725 mmHg 68%
    13:00 +3°C° 0 mm 7 mps 725 mmHg 65%
    14:00 +4°C° 0 mm 7 mps 725 mmHg 63%
    15:00 +3°C° 0 mm 6 mps 725 mmHg 66%
    16:00 +2°C° 0 mm 6 mps 726 mmHg 69%
    17:00 +1°C° 0 mm 5 mps 726 mmHg 72%
    18:00 +1°C° 0 mm 5 mps 726 mmHg 75%
    19:00 0°C° 0 mm 5 mps 727 mmHg 78%
    20:00 -1°C° 0 mm 6 mps 727 mmHg 81%
    21:00 0°C° 0 mm 5 mps 728 mmHg 83%
    22:00 0°C° 0 mm 5 mps 728 mmHg 85%
    23:00 -1°C° 0 mm 5 mps 729 mmHg 87%

    26 October, Friday

    Time Temperature Precipitation Wind Pressure Humidity
    00:00 -1°C° 0 mm 5 mps 729 mmHg 89%
    01:00 -1°C° 0 mm 5 mps 730 mmHg 91%
    02:00 -1°C° 0 mm 5 mps 730 mmHg 93%
    03:00 -1°C° 0 mm 5 mps 731 mmHg 92%
    04:00 -1°C° 0 mm 5 mps 731 mmHg 90%
    05:00 0°C° 0 mm 5 mps 732 mmHg 89%
    06:00 0°C° 0 mm 5 mps 732 mmHg 88%
    07:00 0°C° 0 mm 5 mps 733 mmHg 87%
    08:00 0°C° 0 mm 5 mps 733 mmHg 87%
    09:00 +1°C° 0 mm 5 mps 734 mmHg 82%
    10:00 +1°C° 0 mm 5 mps 734 mmHg 77%
    11:00 +2°C° 0 mm 5 mps 735 mmHg 72%
    12:00 +3°C° 0 mm 5 mps 735 mmHg 70%
    13:00 +3°C° 0 mm 5 mps 735 mmHg 68%
    14:00 +5°C° 0 mm 5 mps 736 mmHg 66%
    15:00 +4°C° 0 mm 4 mps 736 mmHg 69%
    16:00 +4°C° 0 mm 4 mps 737 mmHg 72%
    17:00 +3°C° 0 mm 3 mps 737 mmHg 75%
    18:00 +3°C° 0 mm 3 mps 737 mmHg 78%
    19:00 +2°C° 0 mm 3 mps 738 mmHg 81%
    20:00 +2°C° 0 mm 3 mps 738 mmHg 83%
    21:00 +1°C° 0 mm 3 mps 738 mmHg 86%
    22:00 +1°C° 0 mm 3 mps 739 mmHg 88%
    23:00 0°C° 0 mm 3 mps 739 mmHg 91%

    27 October, Saturday

    Time Temperature Precipitation Wind Pressure Humidity
    00:00 0°C° 0 mm 3 mps 739 mmHg 91%
    01:00 0°C° 0 mm 3 mps 739 mmHg 92%
    02:00 0°C° 0 mm 3 mps 739 mmHg 93%
    03:00 0°C° 0 mm 3 mps 739 mmHg 93%
    04:00 0°C° 0 mm 3 mps 739 mmHg 93%
    05:00 0°C° 0 mm 3 mps 739 mmHg 94%
    06:00 -1°C° 0 mm 4 mps 739 mmHg 92%
    07:00 0°C° 0 mm 4 mps 738 mmHg 91%
    08:00 +1°C° 0 mm 5 mps 738 mmHg 89%
    09:00 +2°C° 0.1 mm 5 mps 738 mmHg 87%
    10:00 +3°C° 0.1 mm 6 mps 738 mmHg 84%
    11:00 +3°C° 0.1 mm 6 mps 737 mmHg 81%
    12:00 +4°C° 0.2 mm 6 mps 737 mmHg 81%
    13:00 +4°C° 0.2 mm 6 mps 737 mmHg 81%
    14:00 +5°C° 0.2 mm 6 mps 737 mmHg 81%
    15:00 +5°C° 0.1 mm 6 mps 736 mmHg 83%
    16:00 +5°C° 0.1 mm 5 mps 736 mmHg 85%
    17:00 +5°C° 0.1 mm 4 mps 736 mmHg 87%
    18:00 +5°C° 0 mm 4 mps 736 mmHg 87%
    19:00 +5°C° 0 mm 4 mps 736 mmHg 88%
    20:00 +4°C° 0 mm 3 mps 736 mmHg 88%
    21:00 +4°C° 0 mm 3 mps 737 mmHg 90%
    22:00 +4°C° 0 mm 3 mps 737 mmHg 91%
    23:00 +3°C° 0 mm 3 mps 737 mmHg 93%

    28 October, Sunday

    Time Temperature Precipitation Wind Pressure Humidity
    00:00 +4°C° 0 mm 3 mps 737 mmHg 93%
    01:00 +5°C° 0 mm 2 mps 737 mmHg 94%
    02:00 +5°C° 0 mm 2 mps 737 mmHg 95%
    03:00 +4°C° 0.2 mm 3 mps 737 mmHg 95%
    04:00 +4°C° 0.2 mm 3 mps 736 mmHg 95%
    05:00 +5°C° 0.2 mm 3 mps 736 mmHg 96%
    06:00 +5°C° 0.8 mm 4 mps 736 mmHg 95%
    07:00 +6°C° 0.8 mm 4 mps 735 mmHg 94%
    08:00 +6°C° 0.8 mm 4 mps 735 mmHg 94%
    09:00 +7°C° 0.3 mm 5 mps 735 mmHg 91%
    10:00 +8°C° 0.3 mm 5 mps 735 mmHg 87%
    11:00 +9°C° 0.3 mm 5 mps 735 mmHg 84%
    12:00 +10°C° 0.6 mm 5 mps 734 mmHg 83%
    13:00 +10°C° 0.6 mm 5 mps 734 mmHg 82%
    14:00 +12°C° 0.6 mm 5 mps 734 mmHg 80%
    15:00 +12°C° 0.1 mm 5 mps 734 mmHg 80%
    16:00 +13°C° 0.1 mm 5 mps 733 mmHg 79%
    17:00 +13°C° 0.1 mm 5 mps 733 mmHg 79%
    18:00 +13°C° 0 mm 5 mps 733 mmHg 78%
    19:00 +13°C° 0 mm 6 mps 733 mmHg 77%
    20:00 +13°C° 0 mm 6 mps 733 mmHg 76%
    21:00 +13°C° 0.1 mm 6 mps 733 mmHg 76%
    22:00 +13°C° 0.1 mm 6 mps 733 mmHg 76%
    23:00 +14°C° 0.1 mm 6 mps 734 mmHg 77%
    Show more